Theta_e
292 287 286 285 289 290 288 289 291 291 290 286 284 283 284 284 285 286 288 290 288 286 287 288 289 289 290 291 293 295 295 294 294 294 294 294 294 294 295 295 295 295 296 300 300 297 296 295 295 296 296 296 296 297 297 296 295 295 295 294 294 295 295 295 294 293 292 291 290 290 291 291 291 291 290 290 290 290 290 290 290 290 290 289 288 288
291 286 286 291 292 292 289 290 290 288 287 287 285 282 285 283 285 289 290 290 287 285 283 285 288 289 290 291 293 294 293 293 294 295 295 295 295 295 295 295 296 297 298 297 298 298 292 293 293 293 295 295 294 295 296 296 295 295 294 294 294 294 294 294 294 293 293 293 292 292 291 292 292 291 290 290 290 290 291 290 289 290 289 288 288 288
285 285 289 291 293 290 287 286 286 287 287 285 285 285 283 284 287 289 289 291 288 284 286 288 287 288 290 291 293 293 293 295 296 296 296 296 296 296 296 296 296 296 296 297 297 297 294 292 292 293 294 295 296 296 296 296 296 294 294 294 294 294 294 294 294 294 293 293 293 293 292 292 291 291 291 290 290 290 290 289 289 289 289 288 287 287
283 285 290 293 290 289 288 286 285 284 284 283 284 280 283 286 283 285 284 285 285 288 284 283 285 287 289 291 292 293 294 294 295 296 296 297 296 296 297 297 297 297 296 296 297 298 293 291 292 292 293 294 295 295 295 295 294 294 294 293 294 294 294 294 294 294 294 293 292 290 289 289 289 288 289 288 288 288 288 288 288 288 288 288 287 287
289 288 290 290 288 288 288 287 285 284 286 285 286 284 284 285 287 286 285 284 284 285 284 285 286 288 289 289 290 292 293 292 294 295 295 296 296 297 297 296 297 296 297 297 297 297 294 289 291 292 293 293 294 295 295 295 294 294 293 294 294 294 293 294 294 294 293 291 289 288 288 288 286 287 287 286 285 288 288 288 287 288 288 288 287 287
287 288 288 288 288 287 286 285 285 286 285 285 284 287 288 289 287 285 286 284 280 281 281 283 283 285 285 288 289 291 288 288 292 292 293 294 295 295 294 294 296 296 297 297 297 297 296 292 291 290 291 292 293 294 295 295 295 294 294 293 293 293 293 293 293 293 292 291 290 288 288 287 287 286 286 287 288 287 287 288 288 287 288 288 287 286
287 290 290 288 286 286 284 285 286 287 287 284 283 287 289 287 286 285 284 283 278 277 283 282 280 282 284 283 286 286 286 289 290 290 292 293 294 294 294 295 295 295 296 295 295 296 295 295 291 290 291 292 293 294 294 294 294 293 293 293 293 293 292 293 292 292 292 291 290 290 290 290 289 289 288 289 289 288 288 288 287 288 287 287 287 286
286 286 286 287 286 285 283 283 288 288 286 283 282 284 285 285 284 284 283 283 282 280 283 283 282 279 283 284 286 288 288 288 289 291 292 293 294 294 293 294 295 295 294 294 294 295 295 295 294 293 292 292 293 293 292 293 292 292 292 292 292 292 292 292 292 292 292 291 290 290 290 290 290 290 289 289 288 288 288 287 287 287 287 287 287 286
287 285 284 284 284 283 285 289 287 289 287 282 285 284 285 285 284 283 283 281 280 279 280 281 282 280 281 286 287 286 285 287 288 291 293 294 295 295 294 294 295 295 295 294 294 295 295 293 292 292 292 292 292 292 292 293 293 292 292 291 291 292 291 291 291 291 291 291 290 290 290 290 290 290 288 287 288 287 287 287 287 286 286 286 286 286
285 287 285 288 285 284 288 287 287 289 286 285 284 283 282 281 281 282 280 282 279 277 278 280 282 277 284 283 283 282 285 285 287 291 293 293 293 293 295 295 295 294 293 294 294 294 293 291 291 291 291 289 291 292 292 291 291 291 290 290 290 290 291 291 291 291 291 291 291 290 290 290 289 288 286 286 286 286 286 286 286 286 286 286 286 285
286 289 288 286 286 289 285 283 284 287 286 284 284 284 282 281 278 277 277 278 281 276 281 281 282 282 280 284 283 283 285 287 290 288 290 292 292 294 294 294 295 294 294 294 293 291 291 289 289 289 289 289 288 288 290 290 290 290 290 290 290 290 290 290 290 290 290 290 290 290 290 289 289 288 286 285 285 285 285 286 286 286 286 286 286 285
287 286 287 286 288 285 284 285 283 283 283 286 287 279 281 283 277 275 270 276 274 276 280 282 283 283 279 280 282 283 283 282 287 288 289 290 291 293 293 294 293 292 291 289 289 292 290 289 288 287 288 287 287 287 288 289 289 290 290 290 289 289 290 290 290 290 290 290 290 290 290 289 289 288 287 286 286 285 285 286 286 286 285 285 285 285
282 286 287 289 289 291 285 287 283 282 285 284 281 283 280 275 272 271 271 271 271 278 278 280 282 279 281 287 284 285 288 285 285 289 290 289 290 291 291 292 292 291 287 287 288 288 288 289 288 286 287 286 286 288 288 289 289 289 289 289 289 289 289 289 290 290 290 290 290 290 290 289 289 288 288 287 287 286 286 286 286 285 285 285 284 284
284 281 285 287 289 289 289 285 282 282 283 284 283 281 279 274 271 269 265 265 270 277 277 278 281 281 286 285 287 291 293 294 289 287 289 289 291 292 293 292 291 292 291 288 288 287 288 289 288 287 287 287 287 286 287 288 289 289 289 289 289 289 289 289 289 289 289 290 290 290 290 289 289 288 288 288 287 287 287 287 286 286 286 285 285 285
281 284 284 286 284 288 291 290 289 287 284 286 284 286 285 281 273 270 272 278 279 281 277 276 276 276 275 281 283 291 290 287 286 288 289 288 288 288 289 289 290 290 291 287 287 288 290 290 287 288 287 287 287 286 287 287 288 288 289 289 289 289 289 289 289 289 289 289 290 290 290 290 289 289 288 288 288 287 287 287 286 286 286 286 286 286
283 285 285 290 287 289 289 292 287 283 284 284 282 282 280 282 283 282 282 279 282 277 274 273 278 276 285 286 286 284 287 288 288 289 288 288 289 288 289 290 291 291 290 290 288 286 287 288 286 286 286 287 286 286 286 286 288 288 289 289 289 290 289 289 289 289 289 289 290 289 289 289 289 289 289 288 288 288 287 287 287 286 286 286 286 286
281 280 285 287 284 288 288 288 288 290 281 282 285 282 286 286 287 284 284 283 277 275 279 282 279 283 284 291 291 289 289 290 290 290 289 290 289 285 288 289 288 289 289 288 289 288 288 286 285 286 285 286 286 285 286 287 288 289 289 289 289 289 289 289 289 289 289 289 289 289 289 289 288 288 288 288 287 287 287 287 287 286 286 286 286 286
286 288 288 285 286 287 283 285 287 284 287 283 280 284 285 285 284 284 278 278 279 278 280 286 283 284 282 282 284 282 282 285 282 283 284 284 283 285 288 287 287 288 287 286 285 286 286 286 287 286 286 286 286 286 286 287 287 288 288 288 288 288 288 289 289 289 289 289 289 289 289 289 289 289 288 288 287 287 286 286 286 286 285 285 286 286
291 283 290 287 287 287 285 287 287 286 287 284 282 285 284 279 278 279 273 275 276 276 278 281 284 285 286 286 287 286 287 286 286 285 282 285 285 285 284 286 286 285 286 289 291 292 293 291 289 289 289 286 285 285 285 285 285 286 286 286 287 287 289 289 289 288 288 288 289 289 289 288 288 289 288 288 288 286 286 285 285 285 285 285 285 285
288 284 286 287 287 287 284 285 281 284 286 285 286 284 284 281 279 276 281 276 280 278 280 280 284 281 289 288 289 287 287 288 288 287 283 284 285 286 286 287 288 290 291 293 295 296 296 298 290 288 289 288 286 285 285 284 284 285 286 285 286 286 286 286 287 287 287 288 288 288 288 288 288 288 288 288 287 286 285 286 285 285 284 285 284 284
284 288 280 288 286 286 283 284 282 285 282 283 284 283 285 284 285 284 282 280 280 280 279 279 279 284 289 293 291 290 285 286 285 283 284 285 286 286 287 291 292 292 292 293 293 294 295 294 291 289 287 287 285 284 284 285 285 285 284 285 286 286 286 285 287 287 288 288 287 287 287 287 287 287 288 287 286 286 285 285 285 285 285 284 284 284
285 284 283 285 286 286 287 287 285 284 285 282 284 284 286 284 282 280 278 286 281 281 278 279 278 285 290 291 293 290 285 283 283 285 286 287 287 290 292 292 292 292 292 291 292 291 290 290 290 289 287 287 286 287 286 285 284 284 285 287 287 286 285 286 286 286 287 287 288 287 287 287 287 287 287 286 286 286 285 285 285 285 284 284 284 284
288 286 285 282 285 287 290 290 287 290 288 286 287 285 288 286 285 282 277 281 285 283 285 283 280 282 293 295 295 295 288 284 285 285 288 289 289 289 291 290 289 289 289 291 290 289 289 289 289 289 288 288 289 289 287 286 286 286 286 286 287 287 287 287 287 287 287 287 287 287 287 287 286 286 285 286 286 285 285 285 285 285 284 284 283 283
292 285 282 285 287 289 292 293 292 290 288 286 286 287 286 284 286 284 284 285 282 283 282 282 280 283 294 295 296 294 293 294 293 290 290 290 290 289 288 288 289 290 292 290 289 289 290 291 291 290 289 288 288 288 288 288 287 287 286 287 287 287 288 287 287 287 286 286 287 287 286 286 286 285 285 285 286 285 285 286 285 284 284 284 283 282
287 286 286 283 283 283 285 286 286 285 285 286 287 289 288 288 287 286 286 285 281 282 283 280 275 282 291 292 291 291 293 294 294 295 295 294 295 291 286 288 289 289 289 290 290 290 290 290 290 290 288 287 288 288 288 288 288 288 288 287 287 287 287 287 287 287 286 286 286 286 286 286 286 285 285 285 286 285 285 285 285 284 283 283 282 282
289 288 286 280 277 275 276 277 278 281 284 284 284 288 289 287 286 285 281 283 279 282 284 280 280 286 292 292 291 293 293 294 295 296 296 296 294 293 291 286 287 287 289 290 290 290 289 288 288 288 288 288 288 288 288 288 288 288 288 288 287 287 287 287 287 287 286 286 286 285 285 285 285 285 285 285 285 285 285 285 284 283 283 283 282 282
283 285 288 286 284 281 283 285 287 286 282 281 279 284 286 288 287 287 286 283 280 284 283 284 285 285 287 289 291 292 293 293 294 295 295 296 296 292 288 288 288 287 287 287 287 287 287 287 287 288 288 288 288 288 288 288 288 288 288 288 287 287 287 287 285 285 285 286 286 286 285 285 285 285 285 285 285 285 285 284 284 283 282 282 282 281
283 284 287 287 287 287 288 288 289 289 286 286 285 284 285 285 286 284 283 281 287 283 279 286 287 285 286 289 291 292 293 294 295 295 296 296 296 292 288 287 288 287 287 287 286 286 286 286 287 286 286 287 287 287 287 288 287 288 288 288 289 288 288 288 286 285 285 285 285 285 285 286 286 285 285 285 285 284 284 284 283 283 283 282 282 281
284 283 287 287 286 288 289 289 290 289 289 288 288 288 287 287 286 283 284 286 286 282 280 285 287 285 287 289 291 292 293 293 294 294 293 290 286 286 287 286 286 285 285 285 285 285 284 285 286 286 286 286 286 287 287 288 288 288 288 288 289 288 288 288 286 286 285 285 285 285 286 285 285 285 285 285 284 284 284 284 284 283 283 282 282 282
285 282 286 287 285 286 287 287 288 287 287 287 287 288 288 287 287 287 287 287 287 285 286 286 286 286 289 290 291 290 287 286 285 285 285 284 284 284 284 283 283 284 284 284 284 284 284 284 285 285 285 285 286 286 286 287 288 288 289 289 290 290 288 285 286 286 285 285 285 286 285 285 285 285 284 284 284 284 284 283 283 283 282 282 282 281
285 281 286 283 281 282 286 287 287 286 286 284 286 287 287 287 288 288 288 288 287 286 287 287 286 286 289 282 284 285 285 284 283 282 281 281 282 282 281 281 281 282 283 283 284 284 284 284 284 284 285 285 285 285 286 286 287 288 288 289 289 289 289 286 286 285 285 285 286 286 285 284 284 284 283 284 284 284 284 284 283 282 282 281 281 281
284 280 285 282 278 278 283 284 284 285 285 284 283 285 285 285 284 286 285 288 286 284 286 286 284 283 279 282 282 282 282 281 280 282 279 280 280 280 280 279 280 281 282 282 283 283 283 283 283 283 283 284 285 285 285 286 287 287 287 288 288 288 288 287 285 285 285 286 286 285 285 284 284 284 284 284 284 284 284 283 282 281 281 280 280 280
282 281 278 279 276 275 282 283 282 282 280 277 279 282 284 285 287 287 288 289 288 288 284 281 278 276 278 280 278 278 280 279 280 281 279 279 279 280 280 280 280 281 282 282 283 283 283 282 283 283 283 283 284 285 285 286 286 286 287 287 287 287 286 286 284 283 284 285 284 284 284 283 283 283 283 283 283 283 283 283 282 281 280 280 280 280
280 280 278 281 274 274 279 279 279 275 269 271 283 286 285 284 283 282 280 278 277 280 279 279 278 279 278 279 277 277 277 279 279 281 283 280 280 280 281 281 281 282 282 283 283 283 283 284 284 284 283 283 284 285 285 286 286 286 286 287 287 287 286 285 284 283 283 283 283 283 282 282 283 283 283 283 283 282 282 282 282 281 281 280 279 279
277 277 275 276 273 271 275 274 271 267 268 279 280 280 282 280 279 277 275 276 277 279 280 278 278 277 278 279 279 278 280 280 281 282 283 281 282 281 281 281 282 282 282 282 282 283 283 284 284 284 284 284 285 285 286 285 286 285 286 286 286 286 285 284 283 283 283 282 282 282 282 283 283 283 283 282 282 282 281 281 281 280 280 279 278 278
277 276 274 273 273 274 272 271 266 266 279 277 279 278 280 279 277 278 275 274 275 276 279 277 278 278 279 278 280 280 280 281 281 283 283 281 282 282 281 282 282 282 282 283 283 283 283 283 283 284 284 285 285 285 286 285 286 285 285 285 285 284 284 283 282 283 282 281 282 282 282 282 282 282 281 281 280 280 281 280 280 279 278 277 277 276
282 280 279 273 279 270 271 271 271 277 276 277 275 275 276 273 274 273 270 274 274 276 277 276 277 277 278 279 280 279 281 280 278 279 281 281 282 283 283 282 283 283 283 283 284 283 284 284 284 284 285 285 285 285 285 286 286 285 285 284 284 283 283 282 282 282 281 280 280 280 281 281 282 281 280 279 279 279 279 279 278 278 276 275 275 275
283 278 279 276 274 279 271 270 271 272 269 272 273 276 279 280 280 279 277 273 276 276 279 277 275 277 278 278 279 279 280 276 273 276 280 281 282 283 283 284 283 283 283 283 284 284 284 284 284 284 284 284 284 285 285 286 286 285 284 284 283 282 281 282 282 282 280 280 279 279 279 279 279 280 279 278 278 278 279 278 276 276 275 275 274 274
277 282 280 277 274 275 272 269 268 267 270 273 271 277 278 279 279 278 276 270 277 274 277 279 276 277 278 277 278 280 276 271 272 276 280 281 282 282 282 282 282 282 283 283 283 283 283 283 283 283 284 284 283 284 285 285 285 285 284 284 284 283 283 283 283 282 280 279 277 276 276 276 276 277 276 276 277 277 276 275 275 274 273 273 274 273
265 266 271 272 273 273 272 269 266 269 267 274 272 274 277 278 278 279 268 270 276 275 278 279 276 277 278 278 278 277 275 270 273 276 280 281 282 282 282 281 281 281 281 282 283 283 283 283 282 282 282 282 283 284 285 285 285 284 284 284 284 283 284 284 283 282 280 278 277 275 274 273 274 276 276 276 275 274 275 273 272 272 272 272 273 272
264 265 267 268 269 270 272 268 270 270 275 274 273 276 278 279 278 269 265 270 275 276 278 280 279 279 279 278 279 275 278 279 279 280 282 282 281 282 282 281 281 281 281 281 281 283 282 282 282 281 282 282 283 284 284 284 284 283 283 283 283 283 284 285 284 283 281 280 278 276 274 272 274 275 275 275 274 274 274 274 274 272 272 272 272 272
265 266 265 267 265 267 267 267 267 270 273 273 274 277 276 273 263 264 271 276 275 276 277 281 280 280 279 279 279 279 280 281 281 282 282 282 281 281 281 280 280 280 281 281 282 282 281 281 281 281 281 282 282 283 283 283 282 282 282 282 282 283 285 285 285 283 282 281 280 277 275 273 274 275 275 273 273 273 274 274 274 273 272 273 272 271
266 267 261 265 263 264 263 263 264 262 270 273 274 275 276 266 266 275 274 275 276 276 277 278 280 280 279 278 279 279 280 280 280 280 281 281 280 278 278 278 278 278 279 279 279 280 281 280 280 280 280 281 281 282 282 282 281 281 281 281 282 284 285 285 285 284 283 281 280 279 277 275 275 275 274 274 274 274 274 273 272 271 271 271 271 271
271 265 261 264 268 264 264 262 262 266 272 276 275 268 272 276 277 276 274 274 277 278 278 279 279 280 279 278 277 277 277 278 278 279 278 278 278 277 277 277 278 278 278 278 278 278 279 278 279 279 279 280 280 280 281 280 280 280 280 280 282 283 284 284 284 284 283 282 281 280 278 277 276 276 275 275 275 275 274 273 272 271 271 272 271 271
272 270 271 267 269 269 263 269 273 275 275 277 277 277 277 278 277 274 274 275 275 276 277 277 277 277 277 278 277 277 277 277 277 277 276 276 276 276 276 276 277 276 276 276 277 278 278 277 277 277 277 278 278 279 279 279 279 279 278 280 282 282 283 283 283 283 282 282 282 280 279 277 276 276 275 275 275 274 274 272 272 271 271 271 271 271
274 273 273 272 268 274 275 275 277 276 275 276 277 278 277 276 275 275 274 275 276 277 277 277 277 276 275 275 275 275 276 276 275 274 274 274 274 274 275 276 276 276 275 275 275 276 276 275 275 275 274 275 276 276 277 278 278 277 277 279 280 281 281 282 282 282 282 281 281 280 279 277 276 275 275 275 275 275 274 273 272 272 271 271 271 271
272 274 272 270 273 270 265 275 274 274 275 275 276 276 275 275 275 276 276 276 276 277 277 276 275 274 274 273 274 274 273 273 272 272 273 273 273 273 273 273 273 273 273 273 274 274 273 272 272 272 272 272 273 274 275 276 276 276 276 277 278 279 279 280 280 280 280 280 281 280 278 276 276 275 274 274 274 274 274 273 272 272 271 271 271 271
269 275 271 273 272 270 270 274 275 276 276 276 276 275 276 276 277 277 277 276 276 276 275 274 273 271 272 272 272 271 271 271 271 271 271 272 272 272 272 271 271 271 271 272 272 271 270 269 269 269 270 270 271 272 272 272 272 273 274 275 276 276 276 276 276 277 278 278 279 279 278 276 273 273 274 273 273 273 273 273 272 272 272 271 271 270
273 274 261 267 270 273 275 275 275 276 275 276 277 277 277 277 276 275 275 274 273 272 272 271 272 272 271 271 271 270 269 270 271 270 270 271 271 270 270 270 270 270 270 270 270 270 269 269 268 268 268 269 270 270 270 269 270 271 272 273 273 273 272 273 273 273 274 275 277 278 277 275 274 274 274 273 273 273 274 273 272 272 272 273 273 272
273 271 274 272 268 269 269 272 275 270 270 275 275 275 275 275 273 273 273 272 271 270 271 271 271 271 270 270 270 269 268 269 270 270 269 269 269 269 269 269 269 269 269 269 269 268 268 268 267 267 267 267 268 267 267 267 268 268 269 269 270 270 269 269 270 270 270 272 274 276 276 274 273 273 273 273 272 272 272 274 276 274 272 272 275 276
273 274 273 270 270 269 275 276 277 276 275 276 276 277 274 272 273 271 270 269 269 270 270 269 268 269 269 269 270 268 268 268 269 269 268 267 268 268 268 268 267 267 268 267 267 266 266 266 266 266 265 265 266 265 265 265 265 265 266 266 267 267 267 267 268 268 269 271 272 274 275 274 273 273 272 272 272 272 271 271 273 277 277 276 275 276
Wind_Speed
3 7 8 9 15 16 7 14 18 19 12 3 2 3 10 11 10 8 12 14 0 4 11 16 17 17 17 16 17 17 15 17 18 18 16 13 13 14 16 16 15 15 20 20 15 8 8 10 10 10 10 11 10 11 11 13 14 15 16 15 17 15 14 14 13 13 13 13 9 7 11 13 11 11 10 9 9 10 9 10 10 10 9 9 9 8
3 8 10 15 20 14 10 14 13 7 3 6 6 6 12 5 14 16 15 8 1 3 3 6 13 18 17 15 16 15 12 18 22 21 18 18 15 15 17 18 17 18 13 13 15 15 6 6 6 7 8 8 11 12 13 16 18 18 16 17 16 12 14 15 16 15 14 14 16 16 16 14 13 12 12 12 11 11 9 10 10 9 8 9 9 9
6 11 14 20 13 1 1 4 5 8 9 7 9 9 8 9 15 15 11 15 7 1 14 13 17 17 16 15 15 16 20 18 18 19 19 17 17 15 16 17 17 15 16 15 16 16 7 6 7 8 8 11 15 15 17 18 15 13 14 14 13 14 15 15 15 13 15 13 11 12 10 12 9 7 7 6 7 7 9 9 9 9 9 9 9 9
5 6 18 17 3 4 3 2 3 3 5 7 7 5 13 9 4 12 3 3 1 5 7 6 17 16 14 17 20 20 20 15 15 18 19 18 19 20 20 19 16 17 16 16 18 18 5 8 8 8 9 12 9 9 9 10 14 13 13 12 14 14 14 14 15 15 13 11 7 5 3 4 4 5 4 4 5 6 6 10 9 8 10 10 10 9
16 5 8 7 5 6 9 6 4 5 12 7 12 8 9 11 15 13 6 4 5 6 4 12 16 17 12 16 14 15 15 13 14 19 19 19 18 20 17 13 16 19 20 17 16 15 8 6 9 11 12 8 11 12 14 14 14 12 17 17 17 15 15 14 14 14 10 9 7 6 6 6 6 5 5 5 6 10 10 7 9 11 9 10 10 10
10 6 2 5 7 7 6 6 7 8 14 8 5 12 20 19 11 7 9 6 4 7 4 2 11 16 8 16 17 8 3 6 13 16 20 22 19 17 14 17 17 15 16 16 17 17 11 7 6 7 7 9 11 13 14 12 14 13 12 12 12 11 11 12 13 14 12 12 13 12 11 10 9 8 9 14 17 13 13 14 6 6 10 10 9 9
6 6 6 7 6 7 6 6 7 9 15 7 8 16 18 12 9 8 12 3 5 3 3 2 1 22 4 6 7 6 6 12 10 11 18 17 16 13 12 12 13 14 14 9 11 13 13 12 7 8 10 12 12 14 7 8 9 10 9 11 13 12 12 11 12 14 12 11 11 15 16 15 16 16 14 11 7 10 8 7 10 10 8 9 10 9
2 3 6 5 6 5 5 5 12 15 9 9 3 6 6 7 7 9 5 6 8 1 4 1 3 5 25 2 7 12 10 12 13 14 15 16 16 12 8 12 15 12 8 10 11 13 13 12 10 13 12 10 14 7 7 8 8 12 13 14 15 12 12 12 12 14 14 14 14 14 13 13 13 15 14 11 8 7 8 9 10 9 9 9 10 10
7 3 5 4 4 5 8 19 3 11 7 4 2 5 5 7 6 1 4 5 3 3 9 4 4 4 13 7 2 4 6 10 12 16 16 16 15 11 9 12 16 13 12 9 11 15 13 7 6 6 8 11 8 8 11 12 12 11 11 12 12 12 12 12 15 15 15 14 15 16 14 14 12 11 7 7 7 8 9 11 8 9 9 10 10 10
2 3 7 10 8 9 11 2 7 12 7 2 6 7 6 6 5 2 3 2 1 2 11 8 8 4 23 1 1 3 1 7 11 16 16 13 9 9 11 13 12 10 9 10 11 10 9 6 6 7 7 5 9 7 7 6 8 9 9 12 13 13 11 11 14 15 15 15 13 14 14 17 13 9 6 8 9 9 10 12 11 10 10 10 10 10
4 1 6 5 9 6 2 0 2 7 4 4 3 2 3 6 3 2 6 2 4 7 12 16 13 8 14 6 9 8 8 7 10 5 6 10 9 10 10 12 12 10 9 9 8 6 6 5 3 2 5 4 3 5 6 8 8 9 11 12 14 14 11 12 15 15 17 15 14 15 16 16 14 12 10 9 10 9 10 12 12 12 12 10 11 10
3 1 1 5 4 4 4 2 3 0 2 4 2 2 3 4 6 2 4 3 3 12 4 14 16 13 12 3 4 6 5 5 7 8 7 8 10 10 8 9 8 6 6 5 6 10 8 5 1 0 3 2 4 5 7 7 8 10 11 12 14 13 14 13 14 15 16 15 15 14 14 15 14 13 12 14 14 13 14 12 12 9 8 10 10 10
4 10 6 2 3 10 3 2 1 3 2 4 4 2 1 5 6 3 2 1 5 12 0 1 5 3 20 12 4 7 9 6 9 8 9 9 8 8 9 10 7 9 6 4 5 6 7 7 6 4 3 3 5 7 6 8 9 9 10 13 16 16 14 14 14 16 16 15 16 16 16 14 12 13 14 14 13 12 13 12 11 11 12 9 10 12
8 1 3 5 1 5 8 8 1 1 5 7 7 5 5 4 4 6 5 2 6 7 1 4 3 10 12 7 10 16 17 17 8 8 8 8 9 10 10 9 10 12 9 3 2 4 5 6 6 4 4 5 5 5 6 7 9 10 11 13 16 16 14 13 14 16 16 18 18 15 14 13 12 14 14 13 14 13 12 11 13 14 14 13 15 14
9 11 6 7 5 5 12 13 15 8 9 13 3 12 11 10 5 5 6 12 10 9 2 3 4 9 1 5 3 13 5 3 3 6 7 6 7 8 9 10 12 11 10 5 4 5 6 7 5 5 5 5 5 5 6 7 8 8 10 12 15 13 14 15 16 13 16 16 15 14 14 13 12 14 13 13 11 12 13 12 13 13 12 13 13 13
10 13 6 10 0 8 12 10 4 4 2 3 3 4 2 11 5 9 6 4 8 4 3 3 9 3 8 1 5 5 7 8 5 8 2 5 7 4 8 10 9 10 11 10 9 5 6 6 5 5 5 5 5 5 6 8 9 11 13 12 14 16 15 15 15 16 18 17 13 12 13 15 14 11 10 10 10 12 13 13 13 14 13 13 11 10
0 7 2 3 4 9 7 1 5 7 4 3 6 7 11 3 7 7 6 4 2 1 16 5 7 11 7 15 13 9 11 13 11 11 8 9 7 4 6 7 8 9 9 8 9 9 7 5 4 5 5 5 5 6 9 10 11 13 11 11 13 12 10 15 18 18 15 13 13 16 16 13 13 14 16 16 16 14 11 11 12 12 13 10 10 11
8 11 1 4 4 2 1 1 1 3 3 8 3 7 2 2 3 3 7 1 6 12 12 8 17 12 2 15 2 1 2 4 4 5 4 5 4 3 5 6 7 7 8 7 7 7 8 6 6 5 5 5 6 7 6 7 5 6 8 10 11 10 13 15 16 16 14 16 16 15 15 16 17 16 15 13 12 11 11 11 10 10 9 14 11 9
1 8 9 1 4 3 2 0 5 1 0 4 6 1 3 4 5 2 4 7 9 12 8 9 17 19 12 18 6 5 7 4 5 2 2 5 3 1 3 6 8 6 6 9 12 14 14 9 4 4 6 3 4 4 5 5 5 6 7 7 9 14 16 13 9 8 8 10 11 12 16 17 15 14 13 12 10 9 12 13 13 13 13 8 9 11
2 6 4 0 3 1 1 2 5 5 1 1 1 2 1 1 3 4 7 2 3 15 10 13 13 15 7 11 10 8 7 7 9 8 5 6 5 4 6 7 7 9 11 11 14 15 16 19 7 2 5 6 5 5 6 6 5 9 8 7 9 8 7 7 11 11 13 13 12 12 10 12 13 14 14 13 12 12 13 14 12 12 11 13 10 10
3 0 7 5 1 2 2 5 7 8 6 4 3 6 1 2 2 1 3 2 5 10 9 9 11 7 8 9 13 10 5 8 7 6 5 5 6 6 6 8 10 10 9 8 8 10 12 12 11 5 3 4 4 4 5 6 8 8 5 10 11 13 11 10 11 10 13 11 13 14 15 16 15 16 14 12 12 13 13 12 12 13 13 9 12 13
1 1 10 3 9 12 8 1 6 3 2 3 6 7 10 8 6 9 13 2 4 7 11 10 16 5 6 5 13 7 3 4 7 5 5 6 7 8 9 9 9 10 10 8 8 8 7 9 10 6 4 3 4 6 7 6 5 7 9 11 9 8 10 12 10 13 14 12 13 14 16 15 13 13 11 13 13 14 13 13 13 13 11 14 13 13
6 1 0 6 9 12 8 6 4 2 3 4 4 5 4 5 4 6 14 11 7 8 8 12 13 12 3 8 12 14 4 4 5 5 7 7 7 7 8 8 8 8 9 11 10 8 7 7 9 9 7 6 7 8 6 6 8 9 9 8 10 11 15 14 15 13 11 12 14 16 16 14 13 13 14 15 14 15 15 15 14 12 14 14 12 12
8 2 2 8 7 11 16 16 11 6 4 3 3 7 5 10 12 10 10 6 9 7 10 10 14 3 6 6 14 12 17 17 10 7 8 8 7 6 7 7 10 10 10 8 7 6 8 8 9 10 9 7 7 6 8 8 8 9 9 12 12 15 18 11 11 11 10 12 14 14 12 14 13 13 15 16 15 17 17 15 13 12 14 13 12 14
2 3 4 8 6 4 7 4 7 1 3 7 11 12 14 13 9 12 7 3 9 12 13 14 18 7 2 3 5 8 13 16 19 20 18 18 16 11 6 7 7 8 8 8 8 8 9 10 12 12 11 10 10 9 7 8 8 8 9 7 9 11 10 9 9 9 12 13 14 12 12 14 13 15 16 17 15 18 17 16 14 12 14 12 13 14
8 8 5 10 12 14 15 14 9 7 9 5 3 10 11 15 17 11 12 11 16 6 14 14 15 11 9 6 10 14 17 21 22 23 24 21 14 10 10 4 6 6 9 10 11 12 13 10 11 13 12 11 10 9 9 9 8 8 8 8 7 10 11 11 9 10 11 11 13 14 14 14 13 15 16 17 17 18 17 15 13 13 12 14 14 12
3 1 9 11 14 15 15 14 8 2 1 3 5 10 13 13 15 14 11 11 15 13 16 15 15 17 13 10 14 17 16 19 22 24 26 25 22 8 4 8 9 9 11 11 11 11 13 15 15 13 13 11 10 12 12 11 12 10 9 10 8 9 10 10 7 9 11 12 14 14 15 15 15 16 16 17 16 13 11 12 12 12 13 12 14 14
2 7 11 14 18 18 17 19 18 16 18 11 10 9 7 11 11 14 14 19 14 15 22 9 15 19 16 15 19 21 20 20 20 20 21 20 17 17 14 13 14 15 14 14 15 16 15 13 13 14 14 13 12 10 9 9 9 11 12 13 12 9 10 10 9 10 12 12 13 14 15 14 15 16 16 14 11 11 11 11 11 12 12 11 13 14
3 6 8 12 19 16 19 20 20 20 18 17 16 17 19 16 14 16 19 20 17 17 21 15 17 21 18 14 14 16 17 17 16 16 16 18 16 14 16 16 15 14 14 15 14 14 15 15 14 15 15 15 16 18 15 10 8 7 7 8 9 10 12 12 9 11 12 12 13 15 14 13 13 13 13 12 11 12 13 13 14 13 12 13 14 13
2 6 8 12 17 14 17 17 17 19 20 18 19 17 20 19 24 24 26 22 22 23 22 22 22 24 20 18 15 13 14 14 12 12 14 16 15 15 15 15 14 13 13 12 12 13 12 13 14 15 16 16 17 18 18 19 19 17 15 16 15 14 11 7 10 12 12 13 15 15 13 12 11 10 10 10 13 14 14 13 13 13 14 15 15 14
2 5 14 10 11 9 10 9 13 15 17 19 19 17 17 17 21 22 22 19 19 23 20 25 24 24 5 11 9 11 11 11 16 17 13 12 13 14 13 13 13 12 13 12 12 13 13 13 13 14 16 17 17 16 15 14 15 16 17 18 18 16 14 8 11 10 11 14 15 13 11 10 11 9 11 12 11 10 11 12 12 13 14 13 12 13
2 5 4 7 10 9 7 9 9 9 11 13 14 15 18 18 19 15 15 14 16 20 19 20 18 10 9 13 8 9 13 14 13 9 11 10 10 11 11 12 11 12 12 12 12 12 13 14 14 15 15 16 16 16 15 15 14 14 16 17 18 17 16 13 10 11 12 14 12 10 11 10 9 10 12 10 12 12 12 11 12 12 13 12 13 13
2 6 7 8 12 11 10 10 8 12 15 16 16 17 20 15 14 14 15 16 15 13 15 12 3 3 6 9 12 13 12 14 13 8 6 9 9 9 10 11 10 11 11 12 13 12 12 11 10 11 12 12 13 14 15 14 14 14 15 16 16 15 15 16 13 11 11 11 8 8 7 6 7 9 10 11 11 10 10 12 12 13 13 15 15 12
6 8 10 7 12 12 15 20 15 12 14 15 13 5 3 10 10 13 8 7 10 8 4 6 3 5 7 9 13 13 11 11 11 10 2 6 9 11 10 11 10 9 9 10 10 11 10 10 11 11 11 11 12 12 11 10 11 12 11 12 14 14 15 15 16 12 11 10 8 7 5 5 6 8 9 8 8 9 11 12 15 14 12 10 10 13
12 10 11 4 10 13 10 11 11 18 16 5 7 6 4 7 11 9 8 8 10 10 8 9 6 7 7 5 7 8 7 9 8 9 3 9 10 9 9 10 11 10 11 10 11 10 11 11 12 13 14 13 14 14 14 14 13 14 15 14 14 14 15 15 14 13 12 10 9 7 6 6 6 9 7 5 6 8 10 12 10 10 11 11 13 14
11 11 5 4 5 6 4 5 12 15 1 6 4 8 0 1 6 5 6 9 10 9 5 5 5 3 6 7 5 6 8 9 7 7 4 8 7 8 9 9 10 9 9 9 10 10 9 10 12 13 13 11 11 13 12 13 13 13 14 12 11 13 13 13 13 13 13 12 11 8 7 6 7 7 5 4 5 8 10 10 10 11 9 9 8 8
13 9 7 9 6 10 7 10 17 9 16 10 3 9 7 4 6 3 4 2 7 9 5 0 3 5 4 7 6 7 7 8 6 4 4 5 6 5 6 8 8 8 9 10 9 9 8 8 10 10 10 11 11 12 12 12 12 12 13 13 13 12 12 12 13 13 13 13 12 9 8 6 7 7 6 5 7 9 9 9 9 8 6 8 8 9
10 12 7 11 6 9 10 11 10 8 11 1 4 7 8 8 8 6 5 4 6 2 3 5 2 4 5 6 6 7 7 9 12 5 1 1 5 5 5 4 5 6 9 10 10 10 9 9 9 9 8 11 12 12 12 12 12 12 12 13 12 13 13 11 12 13 12 12 11 9 8 6 6 7 6 5 8 9 8 6 4 6 7 11 10 10
3 8 11 11 8 7 9 9 8 8 5 6 5 5 7 7 6 4 3 6 4 3 6 5 3 4 4 5 7 3 5 9 10 9 7 8 6 4 6 5 4 8 9 10 11 12 11 10 10 10 10 11 13 13 13 14 13 11 12 12 13 12 13 13 13 13 13 12 10 8 7 6 5 6 6 7 8 7 7 8 8 6 6 7 8 9
5 1 1 5 9 7 8 9 11 4 5 1 1 5 6 5 4 2 7 3 4 6 4 6 5 6 5 4 5 2 3 7 9 12 12 8 6 5 5 7 9 9 10 10 10 9 10 10 10 10 10 12 12 12 14 13 13 13 13 13 11 12 14 14 13 12 10 9 8 7 6 4 5 6 6 7 5 5 6 4 4 6 8 7 7 7
2 5 4 9 8 9 12 10 6 5 0 2 3 5 8 5 1 6 11 2 8 6 3 8 7 8 7 6 5 5 7 7 10 12 13 9 6 7 5 5 9 10 10 11 10 10 10 9 8 10 11 10 11 12 12 12 13 14 14 14 13 13 14 13 12 12 12 10 9 7 6 4 4 6 6 5 5 4 4 5 7 7 8 9 7 8
3 3 4 3 6 8 7 10 10 7 5 5 5 4 5 2 4 9 2 1 4 6 5 7 10 9 7 9 8 8 9 9 9 10 11 11 8 7 9 9 10 9 8 7 10 9 9 8 9 9 9 9 10 11 10 10 13 13 14 14 15 15 14 13 13 12 12 12 11 8 6 5 5 4 5 3 3 4 6 4 5 6 7 7 8 10
4 3 5 6 3 1 0 3 6 9 2 6 2 10 2 1 7 6 5 2 3 5 7 9 8 9 7 8 10 10 8 8 8 9 10 9 8 9 10 10 11 11 10 9 9 8 8 9 9 9 10 9 9 9 10 11 13 14 14 14 16 14 14 14 13 13 12 12 12 10 8 5 5 5 3 4 5 6 6 5 5 6 6 7 7 8
3 6 2 4 3 8 7 8 6 3 3 4 6 5 6 11 8 5 2 7 6 6 5 7 7 8 8 7 8 6 6 8 9 7 8 9 11 10 10 10 10 10 11 9 8 9 7 8 11 11 10 10 9 9 10 11 13 13 14 16 14 14 15 14 14 13 14 13 12 11 9 7 5 5 4 5 5 6 6 6 6 6 7 7 8 8
6 11 7 11 4 7 7 8 6 4 5 7 10 14 14 15 9 3 4 6 9 10 6 6 8 7 7 7 5 6 9 8 9 8 9 11 12 13 14 13 12 12 12 13 12 9 7 10 11 13 13 12 10 11 11 11 12 15 17 15 13 15 16 16 15 14 14 13 13 11 10 6 6 5 5 5 6 7 7 7 7 7 6 8 8 8
2 2 1 3 5 7 6 7 11 10 8 13 10 10 11 10 6 5 5 9 9 11 8 8 7 6 4 4 5 6 7 7 7 8 9 9 10 12 12 12 12 12 13 13 13 12 10 11 11 12 14 15 12 12 11 11 10 16 18 15 13 15 15 16 17 15 14 13 12 12 10 8 7 6 6 7 6 8 7 8 9 9 8 9 10 10
5 5 4 7 9 9 9 7 10 9 10 8 12 11 6 6 8 7 9 11 11 10 9 6 5 4 4 3 6 7 6 6 7 9 8 8 10 11 12 12 12 10 11 12 13 12 12 12 13 14 14 16 16 12 11 12 11 13 15 17 15 14 15 17 18 18 16 14 13 11 9 9 8 6 6 7 6 7 7 7 8 9 9 10 11 11
8 7 8 12 15 11 15 15 15 12 13 12 10 11 13 12 10 10 10 10 10 6 3 3 0 2 2 4 3 3 6 8 9 9 9 9 11 11 12 13 14 14 13 12 12 8 7 8 10 12 15 18 18 15 13 13 14 14 16 16 16 14 15 17 18 17 17 18 14 12 10 9 10 9 7 7 8 9 8 8 9 11 12 13 13 13
6 4 4 4 8 11 13 11 13 17 15 14 16 14 12 11 11 8 9 6 1 2 4 4 1 2 2 4 3 5 9 12 11 9 9 11 12 12 12 12 13 13 14 15 14 11 12 11 13 13 14 16 16 15 15 15 15 16 16 15 14 14 16 17 18 18 19 19 16 14 11 9 9 8 8 8 8 10 10 11 12 13 12 12 10 12
3 11 12 7 9 11 12 14 12 11 11 10 7 7 8 5 4 7 4 2 2 4 5 7 9 4 4 5 6 6 8 11 12 10 10 11 13 14 14 14 13 13 14 13 11 11 12 13 13 15 17 18 15 14 14 15 13 14 16 15 13 13 16 18 18 17 17 16 16 14 12 9 8 8 9 9 9 9 10 12 15 12 11 11 13 20
11 13 8 9 10 13 14 15 13 12 11 9 11 12 5 4 1 2 3 3 5 4 4 5 8 10 10 8 4 7 9 10 13 11 11 12 14 14 13 13 14 14 15 13 13 15 14 13 14 13 16 17 15 13 15 12 16 16 17 14 11 12 16 16 15 15 15 14 14 14 13 10 10 9 9 9 9 9 9 8 10 19 22 17 13 17
Wind_Direction
137 154 173 193 225 228 189 187 210 224 233 256 199 229 251 255 269 264 261 258 89 313 252 263 261 262 263 259 262 266 275 279 273 270 266 259 257 255 258 256 253 251 251 260 267 255 228 218 207 203 195 199 198 198 190 192 194 192 192 183 192 187 177 175 174 178 176 177 175 182 192 197 190 192 188 189 193 191 193 183 183 183 183 176 175 176
106 196 210 215 227 227 196 206 220 249 285 237 260 255 261 225 270 247 262 276 281 187 273 220 266 267 265 264 260 266 266 263 268 270 269 265 258 256 256 260 256 252 264 268 273 261 227 225 210 197 195 185 188 205 193 195 197 197 189 189 190 176 181 185 184 181 182 185 185 183 192 193 190 184 185 195 193 195 187 184 185 185 178 176 178 175
204 207 217 227 233 46 178 176 195 207 232 244 233 252 280 257 257 275 269 268 263 154 272 268 262 264 266 261 259 253 252 249 255 259 263 267 266 260 258 257 260 261 260 265 261 265 232 212 206 196 201 201 201 196 196 201 194 192 190 195 182 184 183 187 183 178 189 189 190 189 189 187 185 196 200 190 184 172 182 189 187 181 178 176 178 176
254 258 236 237 243 253 271 154 128 179 216 217 238 249 243 252 277 287 215 306 330 193 290 286 285 275 266 262 255 246 248 247 254 260 261 257 259 260 255 255 263 265 259 259 262 267 238 200 201 204 207 207 202 202 206 198 195 192 195 188 185 186 186 184 187 189 188 182 176 167 124 146 133 162 149 143 145 176 177 195 185 184 181 180 178 178
221 227 234 237 204 197 233 223 190 232 256 202 219 229 258 250 238 233 266 347 308 277 259 299 288 273 224 250 254 254 240 252 255 263 262 260 257 256 259 270 258 259 264 264 270 271 256 201 212 207 210 192 201 204 202 195 192 192 194 190 187 184 186 187 184 181 166 144 125 113 90 97 89 77 133 151 187 193 194 181 188 193 179 180 182 178
267 263 136 173 207 211 215 243 218 212 263 237 216 202 233 243 267 263 277 348 2 321 329 31 327 294 180 211 230 240 293 226 243 246 256 256 256 261 261 252 259 258 255 258 263 264 265 226 223 219 210 204 211 212 209 194 196 191 190 184 183 181 183 184 181 175 166 170 164 156 158 167 178 183 178 194 200 188 192 198 168 165 186 183 181 180
226 228 183 200 187 209 197 219 229 185 244 261 259 208 233 247 247 262 276 0 284 247 314 22 137 295 252 208 219 242 225 243 252 236 249 260 260 257 259 266 262 255 266 266 262 266 264 249 215 216 208 208 210 219 190 192 193 190 182 181 181 181 181 179 177 173 169 171 177 181 183 183 186 194 207 204 184 185 188 163 177 184 180 185 180 183
179 276 205 220 194 181 182 242 239 187 230 264 235 171 208 230 230 240 230 200 249 270 290 174 137 228 295 284 203 206 214 229 245 255 258 256 260 262 260 267 266 262 254 263 262 263 257 250 220 224 210 206 216 197 177 185 182 184 181 178 182 181 180 178 172 176 178 178 180 184 191 193 199 202 204 187 182 162 163 177 181 176 185 184 186 181
164 220 187 192 172 173 202 221 215 150 181 221 292 145 188 204 216 154 179 199 223 23 302 189 88 288 258 286 178 163 197 247 249 250 252 255 261 264 255 256 264 270 264 245 258 262 269 283 260 244 221 219 203 180 187 189 187 183 177 176 176 180 177 178 177 179 184 184 184 187 189 196 206 202 183 158 157 165 169 178 178 180 182 184 189 187
288 196 206 177 155 212 227 257 146 168 199 278 116 85 77 73 70 122 116 133 312 1 261 179 174 204 276 76 158 15 157 251 245 241 247 251 256 272 273 265 261 270 273 260 245 270 283 261 246 225 231 201 204 193 185 179 170 172 169 175 176 181 179 177 180 183 187 189 185 190 196 199 197 184 161 162 171 172 172 184 185 183 181 186 187 189
227 307 161 123 203 219 122 2 172 187 173 140 79 69 8 38 25 21 68 85 15 256 261 172 191 165 274 288 172 145 198 208 230 267 274 278 274 267 261 263 273 267 267 295 310 271 272 295 284 260 221 222 192 186 173 171 173 168 171 174 179 184 177 179 183 182 189 190 191 198 198 199 193 184 169 167 179 176 178 191 188 187 190 184 189 183
243 115 171 247 103 73 104 91 19 24 150 147 211 113 23 323 13 31 341 33 188 270 234 182 178 186 224 278 286 229 259 245 219 224 247 258 259 266 272 277 277 285 293 298 316 320 337 344 343 191 231 204 205 180 181 175 171 173 176 176 180 183 185 182 183 186 191 192 198 201 199 199 197 183 184 189 188 185 189 190 189 187 180 193 189 187
258 214 212 56 233 150 137 141 309 24 58 111 95 100 195 270 33 308 19 287 186 234 252 218 150 358 242 248 269 280 268 267 228 213 222 236 258 273 278 276 290 289 286 322 334 325 308 297 281 243 230 193 196 206 192 183 177 176 178 180 182 191 185 185 184 190 192 194 201 200 199 201 193 192 194 195 193 189 190 188 185 181 194 185 190 197
269 331 154 221 42 219 139 180 216 303 204 129 159 165 128 257 245 254 265 253 294 286 244 164 167 243 277 296 214 251 249 240 225 230 237 234 248 265 276 290 291 293 292 344 309 286 296 295 297 272 232 214 209 207 206 192 184 183 185 186 189 191 184 184 187 193 194 202 204 200 200 197 192 199 197 198 199 193 193 188 192 190 191 190 199 195
308 292 232 138 237 176 184 197 197 187 159 198 111 159 194 184 160 230 207 238 235 249 344 269 128 233 88 235 240 220 267 327 236 230 236 258 271 268 270 282 289 289 309 358 343 309 295 281 264 254 237 233 217 202 203 203 199 187 192 192 194 186 190 188 192 191 201 206 204 203 202 198 197 201 198 203 201 193 193 194 194 196 194 197 199 197
212 240 249 198 310 154 181 219 139 97 89 197 163 58 8 235 112 237 225 249 278 303 310 206 216 206 242 19 293 259 277 285 275 257 305 304 270 301 312 295 301 307 304 306 304 289 269 263 252 236 229 226 225 205 204 211 203 199 200 197 199 196 189 191 190 198 200 202 199 202 203 205 202 202 202 204 202 203 198 195 195 197 197 201 193 196
283 266 250 174 48 182 193 132 202 149 225 220 112 200 218 122 152 248 268 273 56 359 256 242 290 272 310 280 264 256 252 257 273 281 280 267 282 339 293 290 277 282 288 303 315 313 299 289 272 249 241 224 217 217 214 217 214 207 194 193 201 201 193 196 200 202 201 200 197 202 204 202 202 204 204 205 203 200 195 194 200 199 201 194 195 195
238 274 119 147 230 291 94 271 5 352 130 106 192 231 75 138 113 176 237 334 221 237 251 241 260 267 289 278 39 14 30 286 292 284 272 274 271 284 281 277 275 283 291 285 278 274 274 270 274 270 244 225 216 218 226 226 239 253 223 201 198 201 204 208 206 203 198 197 201 203 205 205 205 206 211 210 206 198 192 198 199 199 193 202 196 184
139 276 266 203 144 307 350 22 318 327 335 177 188 282 154 240 259 250 91 244 237 240 256 217 254 265 249 260 258 290 293 282 285 273 2 316 299 254 265 285 292 277 287 327 331 323 315 306 267 262 273 268 241 234 231 235 220 237 251 227 201 208 214 212 209 211 213 209 209 206 206 205 207 209 210 209 203 193 199 200 200 198 202 186 185 188
29 255 286 346 95 323 18 99 226 221 332 76 35 308 173 112 216 152 198 214 199 255 242 245 215 247 233 256 269 259 235 261 251 268 249 229 239 261 283 276 286 330 335 328 323 323 318 315 350 271 294 281 253 232 224 221 215 221 227 241 230 225 222 216 210 201 208 209 209 214 210 211 208 208 208 204 197 198 203 206 200 198 193 198 185 188
264 236 259 285 118 5 272 187 223 183 194 205 204 240 244 195 220 86 318 186 223 262 248 277 255 244 244 271 273 267 203 227 210 209 231 247 257 250 270 315 323 315 315 309 299 296 302 308 334 332 258 258 263 245 224 216 221 225 208 229 230 220 215 214 214 202 216 206 215 211 208 209 204 209 205 202 200 202 204 203 200 199 200 175 191 187
319 173 247 277 277 242 245 168 189 162 149 161 196 224 224 225 265 255 255 170 244 238 250 251 255 245 268 289 290 300 213 217 226 201 248 290 308 316 304 302 306 309 300 293 284 297 319 314 310 312 303 312 295 263 240 224 225 228 221 225 235 238 225 217 212 211 213 208 217 214 218 210 207 208 201 203 202 205 204 203 202 200 186 192 195 184
156 129 89 251 244 259 257 243 175 230 234 225 201 263 234 241 236 232 254 235 246 232 258 258 279 235 267 300 301 310 274 201 223 221 248 253 264 278 288 287 289 282 276 287 296 303 303 298 295 303 307 284 261 265 250 230 219 226 228 226 226 224 233 217 218 215 214 213 215 217 216 214 210 196 197 202 204 206 205 205 203 193 194 196 190 188
62 115 181 246 256 266 272 272 267 232 208 281 244 217 221 234 216 235 244 266 265 269 263 264 249 273 169 253 277 292 301 302 273 233 247 259 257 252 270 283 286 286 290 292 297 308 304 301 304 311 316 308 290 270 260 249 239 232 229 224 220 223 232 225 227 220 220 224 226 223 217 216 213 202 200 201 205 207 208 205 202 192 198 195 186 187
242 212 201 274 268 268 253 278 302 342 120 223 233 225 222 234 233 241 260 53 268 234 245 254 259 237 256 265 294 309 303 295 295 297 295 292 295 298 258 266 273 284 298 314 324 318 308 313 323 328 338 326 315 311 296 283 271 256 253 251 244 250 252 242 236 226 224 222 227 224 220 222 212 211 207 204 205 210 208 205 200 193 196 189 193 192
232 234 212 241 249 264 270 263 252 239 234 209 257 245 231 220 229 239 244 224 246 207 220 241 258 250 260 289 289 285 287 289 289 288 290 288 289 287 301 301 309 335 342 337 333 343 347 340 341 346 345 336 327 314 304 300 290 287 281 266 252 254 254 242 236 232 230 225 225 223 219 220 213 217 215 209 208 210 206 204 200 194 194 191 193 190
254 309 230 245 248 254 260 266 279 279 67 182 252 221 232 228 231 232 246 249 243 252 240 237 252 268 257 260 262 261 262 268 277 284 287 295 303 301 317 13 20 15 7 6 11 8 7 9 3 356 357 352 341 333 327 318 309 301 290 281 267 258 260 260 246 235 230 227 224 226 222 215 213 213 217 218 212 207 202 203 200 194 196 193 194 190
357 259 238 249 247 253 261 269 278 278 273 260 259 253 240 231 230 227 226 242 246 265 262 247 257 260 259 255 258 262 263 266 272 278 286 296 325 11 37 36 27 25 18 14 14 11 3 355 357 358 353 351 350 344 336 322 307 302 302 297 291 274 261 258 243 239 234 233 231 231 227 220 216 214 215 217 210 200 199 196 193 196 193 189 194 192
278 247 254 248 256 251 255 262 265 270 263 264 255 258 256 251 247 244 243 246 246 247 262 268 263 267 266 259 256 256 265 276 292 317 348 18 31 22 25 26 20 17 10 10 4 1 359 354 349 349 350 347 346 347 345 341 332 320 306 292 287 282 271 261 246 241 237 235 235 235 230 224 221 219 214 207 201 198 198 197 197 193 188 191 198 197
269 248 248 259 272 270 270 267 268 265 270 265 263 255 254 250 252 250 257 254 252 257 261 265 262 262 269 287 310 340 13 25 27 30 38 29 17 19 17 17 13 6 6 2 357 352 351 349 346 346 345 347 348 346 345 344 342 342 339 334 332 327 303 262 243 240 237 234 236 236 231 225 222 217 210 204 205 203 198 195 191 190 194 197 197 194
294 299 352 337 310 296 289 276 272 272 276 278 278 276 273 266 262 259 265 275 280 271 267 264 266 267 324 19 8 4 10 13 28 35 30 25 13 12 11 5 5 359 355 353 352 350 346 346 346 345 346 344 344 343 341 338 335 335 336 335 332 327 322 292 264 249 239 238 238 237 227 218 216 204 204 209 207 205 198 197 194 196 197 195 192 192
348 279 299 300 301 288 285 285 284 298 290 291 292 289 278 271 269 268 262 262 267 275 279 282 277 290 354 338 352 10 13 18 12 20 27 18 9 7 7 359 355 351 349 347 344 345 348 347 347 347 343 340 337 338 339 336 334 336 336 332 328 325 321 311 267 254 249 244 244 232 221 217 210 204 209 199 205 200 197 193 193 197 195 191 190 192
250 294 299 306 292 270 285 280 298 303 300 284 270 262 261 262 257 260 254 259 266 282 277 273 9 24 328 343 356 3 8 356 358 357 36 13 12 6 359 352 347 346 343 342 344 343 343 344 342 338 334 334 334 333 331 330 331 335 334 329 324 323 324 322 308 282 269 263 257 252 240 227 215 216 211 208 205 198 195 194 195 195 190 194 193 183
249 248 269 269 269 287 290 289 297 294 264 259 275 336 358 288 300 292 313 31 14 23 44 86 104 15 12 1 12 353 350 354 331 313 106 27 10 358 351 348 345 337 337 336 339 340 335 338 339 337 332 326 324 324 320 324 323 322 322 320 324 333 333 332 325 312 295 294 287 278 269 248 236 231 226 213 202 194 195 195 200 199 194 187 179 189
256 259 257 249 267 275 281 288 288 257 262 296 57 37 52 62 51 84 66 36 31 41 44 36 31 30 13 341 359 332 313 312 303 306 231 8 21 1 346 340 338 339 332 334 336 335 339 335 335 335 333 334 331 328 331 331 335 331 332 337 335 338 339 338 334 327 319 311 303 297 279 262 248 246 242 219 206 201 204 203 201 192 191 187 190 191
244 250 270 249 239 271 248 228 258 261 334 126 95 47 328 116 34 88 102 63 31 24 33 32 9 13 342 338 305 310 307 304 294 263 202 4 7 350 338 336 330 328 331 330 327 325 330 332 330 328 324 322 324 325 328 327 329 331 327 327 332 335 339 339 339 335 333 324 313 305 289 274 266 261 253 222 209 208 210 205 199 196 189 188 194 194
231 244 237 261 215 253 244 247 257 307 296 273 351 350 53 14 343 37 296 73 73 13 15 147 341 345 308 307 291 295 295 294 300 287 128 6 338 337 327 318 315 320 325 321 318 314 314 318 318 316 316 319 322 323 324 326 326 325 326 330 334 337 337 340 342 342 337 328 317 309 299 286 270 262 246 221 214 215 211 202 201 195 174 183 189 187
213 224 220 250 225 229 261 272 273 268 257 86 219 251 273 234 258 242 239 243 123 29 270 167 305 266 268 273 285 297 297 325 331 332 140 13 322 314 303 294 300 313 318 314 309 305 307 309 312 314 319 320 321 321 321 322 321 322 326 329 332 335 332 338 339 338 335 327 319 306 298 282 267 261 245 224 222 217 214 206 194 189 176 186 185 190
227 227 235 236 274 281 279 280 278 280 275 114 261 251 252 263 267 271 216 243 131 61 264 170 259 262 251 276 273 309 339 334 313 308 321 323 317 302 300 300 312 310 307 305 306 306 309 315 317 320 324 326 324 323 323 320 322 324 326 329 331 332 330 333 335 335 331 322 312 300 287 276 263 250 237 229 227 216 208 198 193 180 169 183 183 189
25 322 134 245 246 242 251 243 255 240 251 189 205 264 244 265 278 177 266 235 128 199 221 186 236 267 249 226 233 242 288 297 307 313 315 306 292 297 287 303 307 303 298 299 298 299 307 313 321 326 329 325 320 320 321 320 322 325 325 326 329 331 330 330 330 322 314 309 306 301 290 270 262 254 240 236 226 209 208 186 163 170 178 185 181 176
296 292 216 238 244 259 260 273 295 289 312 232 271 279 290 300 144 264 265 283 339 322 265 193 227 237 230 222 216 210 224 223 257 273 286 295 297 288 278 278 286 289 294 294 297 306 309 312 318 318 317 318 315 318 316 318 321 325 326 325 328 328 324 322 323 323 321 317 312 309 296 277 254 256 251 236 221 199 185 183 187 179 181 181 180 176
280 180 301 223 225 234 241 253 250 263 227 162 273 229 256 353 278 243 235 17 285 285 279 209 228 238 227 220 225 225 235 245 253 263 279 284 282 285 290 289 284 281 271 273 286 297 298 303 308 307 306 305 307 304 308 314 321 320 324 325 323 321 319 320 320 319 320 320 319 311 299 283 268 251 246 224 181 187 201 194 181 185 186 188 183 183
229 282 228 242 239 35 30 269 276 264 257 116 284 334 322 148 217 275 293 259 225 254 260 257 226 238 236 241 235 236 245 260 264 267 266 279 285 286 288 293 296 294 296 300 301 295 298 302 301 297 296 300 302 307 312 323 321 319 320 319 316 318 317 317 317 316 316 314 313 309 299 283 260 251 216 204 198 193 201 186 180 182 183 186 187 188
220 265 242 254 190 264 233 238 232 219 234 309 358 278 285 276 283 267 296 290 292 286 266 253 241 233 234 234 242 260 267 272 274 273 278 284 289 295 297 295 294 296 298 294 287 291 291 295 298 301 300 305 308 315 320 322 317 313 313 310 315 317 314 314 313 314 312 310 309 305 296 279 261 242 218 205 191 198 191 188 188 185 191 188 189 195
191 218 213 249 211 224 207 235 242 272 321 315 294 280 273 276 276 218 244 265 299 292 253 237 238 239 221 223 242 253 268 260 264 274 284 283 291 297 296 297 299 302 301 300 300 298 303 302 307 308 308 310 316 317 317 316 312 310 308 309 316 315 312 312 310 309 306 304 304 300 292 275 256 238 218 206 190 195 197 191 185 194 199 191 197 199
301 256 158 348 254 262 245 238 266 288 275 267 262 259 262 268 264 262 270 292 274 270 250 224 232 228 227 222 234 255 248 260 269 275 276 283 284 283 284 288 292 295 299 302 302 307 312 314 310 311 309 309 310 310 308 307 312 309 305 309 312 310 311 309 309 307 304 301 298 293 287 277 262 238 225 211 204 207 201 194 193 200 199 199 205 203
251 252 251 241 268 273 266 251 257 253 261 259 259 266 253 236 257 277 282 267 266 263 257 229 207 221 230 225 224 248 267 268 275 276 283 289 283 281 284 286 284 281 283 287 289 307 318 318 314 310 309 306 305 304 303 305 305 301 305 307 307 309 310 312 310 307 304 299 296 289 278 262 260 245 227 216 216 214 209 200 199 204 208 206 205 208
278 190 218 239 255 245 262 259 266 266 257 258 262 269 273 275 269 260 254 257 256 246 232 233 53 271 247 258 255 268 274 279 278 283 286 282 282 284 286 288 291 295 291 287 290 295 293 291 293 300 305 304 301 303 305 304 302 302 301 300 303 311 314 309 305 304 303 300 296 290 277 262 248 238 229 216 211 213 214 208 203 206 210 206 206 203
240 75 212 185 233 252 267 274 272 269 276 272 266 265 266 266 272 274 264 267 286 309 324 315 265 262 318 283 317 306 295 287 283 282 281 281 281 281 278 282 286 287 290 293 296 305 301 305 301 295 291 286 290 298 303 300 300 299 297 299 307 316 313 305 300 300 296 295 291 282 272 253 247 230 228 223 215 221 216 207 205 212 221 221 214 213
210 244 253 260 266 259 259 266 267 278 275 275 273 267 269 277 257 262 292 334 3 351 339 326 312 320 301 296 293 284 272 278 283 283 280 277 276 280 284 286 286 286 286 286 294 296 297 294 292 294 295 292 295 298 295 296 295 293 293 298 309 315 306 300 297 293 288 286 283 279 273 256 243 232 230 226 223 222 231 227 222 216 217 226 216 225
225 241 247 247 249 260 256 255 259 267 283 276 280 285 337 24 53 15 22 4 355 347 336 320 305 303 295 283 264 264 268 273 279 286 283 280 279 279 281 284 286 286 287 294 301 298 295 292 292 292 289 290 297 296 296 295 293 289 289 298 311 307 295 290 289 284 279 279 276 276 274 264 250 238 226 227 225 222 225 229 228 228 228 229 224 221